SCOUT A DEB, 3591

Orbit data source: Space-Track

SCOUT A DEB, 3591 is space debris in LEO originally from a launch on Thu, 19 May 1966 UTC launched from the Air Force Western Test Range (AFWTR). Debris objects in space refer to the collection of defunct objects orbiting the Earth. Examples of debris include non-operational satellites, rocket bodies, and fragments generated from explosions, collisions, or faulty payload assembly.

Loading next visibility...
Identifier
3591, 1966-041E
Orbit
LEO
Country
Flag of USUS
Related business
Manufacturer
Unknown
Mission
Spacecraft
Bus & Motor
Unknown
Mass
Unknown
Launch date (UTC)
1966-05-19 (60 years ago)
Launch vehicle
Unknown
Launch site
Air Force Western Test Range (AFWTR)
Object type
Payload
Rocket body
Debris
Shape & HBR
Unknown shape, 0.2 m
Radar Cross Section
Medium (>0.1 m² and <1 m²)

Expand to show TLE details & history
Last TLE update: 1 day ago

TLE from 1 day ago
0 SCOUT A DEB
1 03591U 66041E   26207.42502129  .00000113  00000-0  62760-4 0  9997
2 03591  90.2140  83.4772 0086479   8.7610 351.5056 14.04089532 72890
Epoch: 2026-07-26T10:12Z
TLE epoch observation values (Epoch: 2026-07-26T10:12:01.839Z)
Latitude
-0.00003°
Longitude
-13.6536°
Altitude
820.623 km
Speed
7.474 km/s
True Right ascension
05h 33m 54s
True Declination
0° 00' 00"
Sunlit
Object was in daylight at epoch
Visualization orbit readout
Latitude
Unknown
Longitude
Unknown
Altitude
Unknown
Speed
Unknown
Apparent Right ascension
Unknown
Apparent Declination
Unknown
Sunlit
N/A
Visualization observer readout
Local Sidereal Time
23:11:51
Azimuth
Unknown
Elevation
Unknown
Doppler factor
Unknown
Orbital elements
Apogee altitude
939.378 km
Perigee altitude
813.901 km
Semi-major axis
7,254.776 km
Eccentricity
0.00865
Inclination
90.214°
RAAN
83.4772°
Arg. of periapsis
8.761°
True anomaly
351.35764°
Mean anomaly
351.5056°
Eccentric anomaly
351.43178°
Mean motion
3.51243 °/min
Orbital period
102.49 mins
BSTAR
0.00006276
Loading maneuver chart data...
Computing Atmospheric mass density...
Loading historical data...
Loading historical data...
Loading historical data...
Loading historical data...
Loading historical data...
Loading historical data...
Loading historical data...

Documentation

Showing up to 5 results
|